Year,Month,Day,Hour,Minute,Value (Times are PST for temperature in C)
2017,08,09,00,00,17.10
2017,08,09,00,01,17.10
2017,08,09,00,02,17.10
2017,08,09,00,03,17.10
2017,08,09,00,04,17.10
2017,08,09,00,05,17.10
2017,08,09,00,06,17.10
2017,08,09,00,07,17.10
2017,08,09,00,08,17.10
2017,08,09,00,09,17.10
2017,08,09,00,10,17.10
2017,08,09,00,11,17.20
2017,08,09,00,12,17.20
2017,08,09,00,13,17.30
2017,08,09,00,14,17.40
2017,08,09,00,15,17.40
2017,08,09,00,16,17.50
2017,08,09,00,17,17.60
2017,08,09,00,18,17.60
2017,08,09,00,19,17.60
2017,08,09,00,20,17.60
2017,08,09,00,21,17.70
2017,08,09,00,22,17.70
2017,08,09,00,23,17.70
2017,08,09,00,24,17.70
2017,08,09,00,25,17.70
2017,08,09,00,26,17.60
2017,08,09,00,27,17.60
2017,08,09,00,28,17.60
2017,08,09,00,29,17.60
2017,08,09,00,30,17.50
2017,08,09,00,31,17.50
2017,08,09,00,32,17.40
2017,08,09,00,33,17.40
2017,08,09,00,34,17.30
2017,08,09,00,35,17.30
2017,08,09,00,36,17.30
2017,08,09,00,37,17.30
2017,08,09,00,38,17.20
2017,08,09,00,39,17.20
2017,08,09,00,40,17.10
2017,08,09,00,41,17.10
2017,08,09,00,42,17.00
2017,08,09,00,43,17.00
2017,08,09,00,44,16.90
2017,08,09,00,45,16.90
2017,08,09,00,46,16.80
2017,08,09,00,47,16.80
2017,08,09,00,48,16.70
2017,08,09,00,49,16.70
2017,08,09,00,50,16.70
2017,08,09,00,51,16.70
2017,08,09,00,52,16.70
2017,08,09,00,53,16.70
2017,08,09,00,54,16.70
2017,08,09,00,55,16.70
2017,08,09,00,56,16.70
2017,08,09,00,57,16.70
2017,08,09,00,58,16.70
2017,08,09,00,59,16.70
2017,08,09,01,00,16.60
2017,08,09,01,01,16.60
2017,08,09,01,02,16.60
2017,08,09,01,03,16.60
2017,08,09,01,04,16.60
2017,08,09,01,05,16.60
2017,08,09,01,06,16.60
2017,08,09,01,07,16.60
2017,08,09,01,08,16.60
2017,08,09,01,09,16.50
2017,08,09,01,10,16.50
2017,08,09,01,11,16.50
2017,08,09,01,12,16.50
2017,08,09,01,13,16.50
2017,08,09,01,14,16.50
2017,08,09,01,15,16.50
2017,08,09,01,16,16.40
2017,08,09,01,17,16.40
2017,08,09,01,18,16.40
2017,08,09,01,19,16.40
2017,08,09,01,20,16.40
2017,08,09,01,21,16.40
2017,08,09,01,22,16.40
2017,08,09,01,23,16.30
2017,08,09,01,24,16.30
2017,08,09,01,25,16.30
2017,08,09,01,26,16.30
2017,08,09,01,27,16.30
2017,08,09,01,28,16.30
2017,08,09,01,29,16.30
2017,08,09,01,30,16.30
2017,08,09,01,31,16.20
2017,08,09,01,32,16.20
2017,08,09,01,33,16.20
2017,08,09,01,34,16.20
2017,08,09,01,35,16.20
2017,08,09,01,36,16.20
2017,08,09,01,37,16.20
2017,08,09,01,38,16.10
2017,08,09,01,39,16.10
2017,08,09,01,40,16.10
2017,08,09,01,41,16.10
2017,08,09,01,42,16.10
2017,08,09,01,43,16.10
2017,08,09,01,44,16.10
2017,08,09,01,45,16.10
2017,08,09,01,46,16.10
2017,08,09,01,47,16.10
2017,08,09,01,48,16.10
2017,08,09,01,49,16.10
2017,08,09,01,50,16.10
2017,08,09,01,51,16.10
2017,08,09,01,52,16.10
2017,08,09,01,53,16.10
2017,08,09,01,54,16.00
2017,08,09,01,55,16.00
2017,08,09,01,56,16.00
2017,08,09,01,57,16.00
2017,08,09,01,58,16.00
2017,08,09,01,59,16.00
2017,08,09,02,00,15.90
2017,08,09,02,01,15.90
2017,08,09,02,02,15.90
2017,08,09,02,03,15.90
2017,08,09,02,04,15.90
2017,08,09,02,05,15.90
2017,08,09,02,06,15.90
2017,08,09,02,07,15.90
2017,08,09,02,08,15.90
2017,08,09,02,09,15.90
2017,08,09,02,10,15.90
2017,08,09,02,11,15.90
2017,08,09,02,12,15.90
2017,08,09,02,13,16.00
2017,08,09,02,14,16.00
2017,08,09,02,15,16.00
2017,08,09,02,16,16.10
2017,08,09,02,17,16.10
2017,08,09,02,18,16.10
2017,08,09,02,19,16.10
2017,08,09,02,20,16.10
2017,08,09,02,21,16.10
2017,08,09,02,22,16.10
2017,08,09,02,23,16.10
2017,08,09,02,24,16.10
2017,08,09,02,25,16.10
2017,08,09,02,26,16.00
2017,08,09,02,27,16.00
2017,08,09,02,28,16.00
2017,08,09,02,29,16.00
2017,08,09,02,30,16.00
2017,08,09,02,31,16.00
2017,08,09,02,32,16.00
2017,08,09,02,33,15.90
2017,08,09,02,34,15.90
2017,08,09,02,35,15.90
2017,08,09,02,36,15.90
2017,08,09,02,37,16.00
2017,08,09,02,38,16.00
2017,08,09,02,39,16.00
2017,08,09,02,40,16.00
2017,08,09,02,41,16.00
2017,08,09,02,42,16.00
2017,08,09,02,43,16.00
2017,08,09,02,44,16.00
2017,08,09,02,45,15.90
2017,08,09,02,46,15.90
2017,08,09,02,47,15.90
2017,08,09,02,48,15.90
2017,08,09,02,49,15.90
2017,08,09,02,50,15.80
2017,08,09,02,51,15.80
2017,08,09,02,52,15.80
2017,08,09,02,53,15.80
2017,08,09,02,54,15.70
2017,08,09,02,55,15.70
2017,08,09,02,56,15.70
2017,08,09,02,57,15.70
2017,08,09,02,58,15.70
2017,08,09,02,59,15.70
2017,08,09,03,00,15.70
2017,08,09,03,01,15.70
2017,08,09,03,02,15.60
2017,08,09,03,03,15.60
2017,08,09,03,04,15.60
2017,08,09,03,05,15.60
2017,08,09,03,06,15.60
2017,08,09,03,07,15.60
2017,08,09,03,08,15.50
2017,08,09,03,09,15.50
2017,08,09,03,10,15.50
2017,08,09,03,11,15.50
2017,08,09,03,12,15.50
2017,08,09,03,13,15.40
2017,08,09,03,14,15.40
2017,08,09,03,15,15.40
2017,08,09,03,16,15.40
2017,08,09,03,17,15.40
2017,08,09,03,18,15.40
2017,08,09,03,19,15.30
2017,08,09,03,20,15.30
2017,08,09,03,21,15.30
2017,08,09,03,22,15.30
2017,08,09,03,23,15.30
2017,08,09,03,24,15.30
2017,08,09,03,25,15.30
2017,08,09,03,26,15.30
2017,08,09,03,27,15.30
2017,08,09,03,28,15.30
2017,08,09,03,29,15.30
2017,08,09,03,30,15.30
2017,08,09,03,31,15.30
2017,08,09,03,32,15.30
2017,08,09,03,33,15.30
2017,08,09,03,34,15.20
2017,08,09,03,35,15.20
2017,08,09,03,36,15.20
2017,08,09,03,37,15.20
2017,08,09,03,38,15.20
2017,08,09,03,39,15.10
2017,08,09,03,40,15.10
2017,08,09,03,41,15.10
2017,08,09,03,42,15.10
2017,08,09,03,43,15.00
2017,08,09,03,44,15.00
2017,08,09,03,45,15.00
2017,08,09,03,46,15.00
2017,08,09,03,47,15.00
2017,08,09,03,48,14.90
2017,08,09,03,49,14.90
2017,08,09,03,50,14.90
2017,08,09,03,51,14.90
2017,08,09,03,52,14.90
2017,08,09,03,53,14.90
2017,08,09,03,54,14.90
2017,08,09,03,55,14.90
2017,08,09,03,56,14.90
2017,08,09,03,57,14.90
2017,08,09,03,58,14.90
2017,08,09,03,59,14.90
2017,08,09,04,00,14.90
2017,08,09,04,01,14.90
2017,08,09,04,02,14.90
2017,08,09,04,03,14.90
2017,08,09,04,04,14.90
2017,08,09,04,05,14.90
2017,08,09,04,06,14.90
2017,08,09,04,07,14.90
2017,08,09,04,08,14.90
2017,08,09,04,09,14.90
2017,08,09,04,10,14.80
2017,08,09,04,11,14.80
2017,08,09,04,12,14.80
2017,08,09,04,13,14.80
2017,08,09,04,14,14.80
2017,08,09,04,15,14.80
2017,08,09,04,16,14.80
2017,08,09,04,17,14.80
2017,08,09,04,18,14.80
2017,08,09,04,19,14.80
2017,08,09,04,20,14.70
2017,08,09,04,21,14.70
2017,08,09,04,22,14.70
2017,08,09,04,23,14.70
2017,08,09,04,24,14.70
2017,08,09,04,25,14.70
2017,08,09,04,26,14.60
2017,08,09,04,27,14.60
2017,08,09,04,28,14.60
2017,08,09,04,29,14.60
2017,08,09,04,30,14.60
2017,08,09,04,31,14.60
2017,08,09,04,32,14.60
2017,08,09,04,33,14.60
2017,08,09,04,34,14.60
2017,08,09,04,35,14.60
2017,08,09,04,36,14.60
2017,08,09,04,37,14.60
2017,08,09,04,38,14.60
2017,08,09,04,39,14.60
2017,08,09,04,40,14.60
2017,08,09,04,41,14.60
2017,08,09,04,42,14.60
2017,08,09,04,43,14.60
2017,08,09,04,44,14.60
2017,08,09,04,45,14.60
2017,08,09,04,46,14.60
2017,08,09,04,47,14.60
2017,08,09,04,48,14.60
2017,08,09,04,49,14.60
2017,08,09,04,50,14.60
2017,08,09,04,51,14.60
2017,08,09,04,52,14.50
2017,08,09,04,53,14.50
2017,08,09,04,54,14.50
2017,08,09,04,55,14.40
2017,08,09,04,56,14.40
2017,08,09,04,57,14.40
2017,08,09,04,58,14.40
2017,08,09,04,59,14.40
2017,08,09,05,00,14.40
2017,08,09,05,01,14.40
2017,08,09,05,02,14.40
2017,08,09,05,03,14.40
2017,08,09,05,04,14.40
2017,08,09,05,05,14.40
2017,08,09,05,06,14.40
2017,08,09,05,07,14.40
2017,08,09,05,08,14.40
2017,08,09,05,09,14.40
2017,08,09,05,10,14.40
2017,08,09,05,11,14.40
2017,08,09,05,12,14.40
2017,08,09,05,13,14.40
2017,08,09,05,14,14.40
2017,08,09,05,15,14.40
2017,08,09,05,16,14.40
2017,08,09,05,17,14.40
2017,08,09,05,18,14.40
2017,08,09,05,19,14.40
2017,08,09,05,20,14.40
2017,08,09,05,21,14.40
2017,08,09,05,22,14.30
2017,08,09,05,23,14.30
2017,08,09,05,24,14.30
2017,08,09,05,25,14.30
2017,08,09,05,26,14.30
2017,08,09,05,27,14.30
2017,08,09,05,28,14.30
2017,08,09,05,29,14.30
2017,08,09,05,30,14.30
2017,08,09,05,31,14.30
2017,08,09,05,32,14.30
2017,08,09,05,33,14.30
2017,08,09,05,34,14.30
2017,08,09,05,35,14.30
2017,08,09,05,36,14.30
2017,08,09,05,37,14.30
2017,08,09,05,38,14.20
2017,08,09,05,39,14.20
2017,08,09,05,40,14.20
2017,08,09,05,41,14.20
2017,08,09,05,42,14.20
2017,08,09,05,43,14.20
2017,08,09,05,44,14.20
2017,08,09,05,45,14.20
2017,08,09,05,46,14.20
2017,08,09,05,47,14.20
2017,08,09,05,48,14.10
2017,08,09,05,49,14.10
2017,08,09,05,50,14.10
2017,08,09,05,51,14.10
2017,08,09,05,52,14.10
2017,08,09,05,53,14.10
2017,08,09,05,54,14.10
2017,08,09,05,55,14.10
2017,08,09,05,56,14.00
2017,08,09,05,57,14.00
2017,08,09,05,58,14.00
2017,08,09,05,59,14.00
2017,08,09,06,00,14.00
2017,08,09,06,01,14.00
2017,08,09,06,02,14.00
2017,08,09,06,03,13.90
2017,08,09,06,04,13.90
2017,08,09,06,05,13.90
2017,08,09,06,06,13.90
2017,08,09,06,07,13.90
2017,08,09,06,08,13.90
2017,08,09,06,09,13.90
2017,08,09,06,10,13.90
2017,08,09,06,11,13.90
2017,08,09,06,12,13.90
2017,08,09,06,13,13.90
2017,08,09,06,14,13.80
2017,08,09,06,15,13.80
2017,08,09,06,16,13.80
2017,08,09,06,17,13.80
2017,08,09,06,18,13.80
2017,08,09,06,19,13.80
2017,08,09,06,20,13.80
2017,08,09,06,21,13.80
2017,08,09,06,22,13.90
2017,08,09,06,23,13.90
2017,08,09,06,24,13.90
2017,08,09,06,25,13.90
2017,08,09,06,26,13.90
2017,08,09,06,27,13.90
2017,08,09,06,28,14.00
2017,08,09,06,29,14.00
2017,08,09,06,30,14.00
2017,08,09,06,31,14.00
2017,08,09,06,32,14.00
2017,08,09,06,33,14.00
2017,08,09,06,34,14.00
2017,08,09,06,35,14.00
2017,08,09,06,36,14.10
2017,08,09,06,37,14.10
2017,08,09,06,38,14.10
2017,08,09,06,39,14.10
2017,08,09,06,40,14.10
2017,08,09,06,41,14.10
2017,08,09,06,42,14.00
2017,08,09,06,43,14.00
2017,08,09,06,44,14.00
2017,08,09,06,45,14.00
2017,08,09,06,46,14.00
2017,08,09,06,47,13.90
2017,08,09,06,48,13.90
2017,08,09,06,49,13.90
2017,08,09,06,50,13.90
2017,08,09,06,51,13.90
2017,08,09,06,52,13.90
2017,08,09,06,53,13.80
2017,08,09,06,54,13.80
2017,08,09,06,55,13.80
2017,08,09,06,56,13.80
2017,08,09,06,57,13.80
2017,08,09,06,58,13.80
2017,08,09,06,59,13.80
2017,08,09,07,00,13.80
2017,08,09,07,01,13.80
2017,08,09,07,02,13.80
2017,08,09,07,03,13.80
2017,08,09,07,04,13.80
2017,08,09,07,05,13.80
2017,08,09,07,06,13.80
2017,08,09,07,07,13.80
2017,08,09,07,08,13.80
2017,08,09,07,09,13.80
2017,08,09,07,10,13.90
2017,08,09,07,11,13.90
2017,08,09,07,12,13.90
2017,08,09,07,13,13.90
2017,08,09,07,14,13.90
2017,08,09,07,15,14.00
2017,08,09,07,16,14.00
2017,08,09,07,17,14.00
2017,08,09,07,18,14.00
2017,08,09,07,19,14.00
2017,08,09,07,20,14.00
2017,08,09,07,21,14.10
2017,08,09,07,22,14.10
2017,08,09,07,23,14.10
2017,08,09,07,24,14.10
2017,08,09,07,25,14.10
2017,08,09,07,26,14.20
2017,08,09,07,27,14.20
2017,08,09,07,28,14.20
2017,08,09,07,29,14.20
2017,08,09,07,30,14.20
2017,08,09,07,31,14.20
2017,08,09,07,32,14.20
2017,08,09,07,33,14.30
2017,08,09,07,34,14.30
2017,08,09,07,35,14.30
2017,08,09,07,36,14.30
2017,08,09,07,37,14.30
2017,08,09,07,38,14.30
2017,08,09,07,39,14.30
2017,08,09,07,40,14.30
2017,08,09,07,41,14.30
2017,08,09,07,42,14.40
2017,08,09,07,43,14.40
2017,08,09,07,44,14.40
2017,08,09,07,45,14.40
2017,08,09,07,46,14.40
2017,08,09,07,47,14.40
2017,08,09,07,48,14.50
2017,08,09,07,49,14.50
2017,08,09,07,50,14.60
2017,08,09,07,51,14.60
2017,08,09,07,52,14.60
2017,08,09,07,53,14.60
2017,08,09,07,54,14.60
2017,08,09,07,55,14.60
2017,08,09,07,56,14.60
2017,08,09,07,57,14.70
2017,08,09,07,58,14.70
2017,08,09,07,59,14.70
2017,08,09,08,00,14.70
2017,08,09,08,01,14.80
2017,08,09,08,02,14.80
2017,08,09,08,03,14.80
2017,08,09,08,04,14.80
2017,08,09,08,05,14.90
2017,08,09,08,06,14.90
2017,08,09,08,07,14.90
2017,08,09,08,08,14.90
2017,08,09,08,09,15.00
2017,08,09,08,10,15.00
2017,08,09,08,11,15.10
2017,08,09,08,12,15.10
2017,08,09,08,13,15.10
2017,08,09,08,14,15.10
2017,08,09,08,15,15.20
2017,08,09,08,16,15.20
2017,08,09,08,17,15.20
2017,08,09,08,18,15.20
2017,08,09,08,19,15.30
2017,08,09,08,20,15.30
2017,08,09,08,21,15.30
2017,08,09,08,22,15.30
2017,08,09,08,23,15.30
2017,08,09,08,24,15.40
2017,08,09,08,25,15.40
2017,08,09,08,26,15.40
2017,08,09,08,27,15.50
2017,08,09,08,28,15.50
2017,08,09,08,29,15.60
2017,08,09,08,30,15.60
2017,08,09,08,31,15.60
2017,08,09,08,32,15.60
2017,08,09,08,33,15.70
2017,08,09,08,34,15.70
2017,08,09,08,35,15.70
2017,08,09,08,36,15.70
2017,08,09,08,37,15.80
2017,08,09,08,38,15.80
2017,08,09,08,39,15.80
2017,08,09,08,40,15.80
2017,08,09,08,41,15.80
2017,08,09,08,42,15.90
2017,08,09,08,43,15.90
2017,08,09,08,44,15.90
2017,08,09,08,45,15.90
2017,08,09,08,46,16.00
2017,08,09,08,47,16.00
2017,08,09,08,48,16.00
2017,08,09,08,49,16.10
2017,08,09,08,50,16.10
2017,08,09,08,51,16.10
2017,08,09,08,52,16.20
2017,08,09,08,53,16.20
2017,08,09,08,54,16.20
2017,08,09,08,55,16.30
2017,08,09,08,56,16.30
2017,08,09,08,57,16.30
2017,08,09,08,58,16.30
2017,08,09,08,59,16.40
2017,08,09,09,00,16.40
2017,08,09,09,01,16.40
2017,08,09,09,02,16.40
2017,08,09,09,03,16.50
2017,08,09,09,04,16.50
2017,08,09,09,05,16.60
2017,08,09,09,06,16.60
2017,08,09,09,07,16.60
2017,08,09,09,08,16.70
2017,08,09,09,09,16.70
2017,08,09,09,10,16.70
2017,08,09,09,11,16.70
2017,08,09,09,12,16.80
2017,08,09,09,13,16.80
2017,08,09,09,14,16.90
2017,08,09,09,15,17.00
2017,08,09,09,16,17.00
2017,08,09,09,17,17.10
2017,08,09,09,18,17.20
2017,08,09,09,19,17.20
2017,08,09,09,20,17.30
2017,08,09,09,21,17.30
2017,08,09,09,22,17.30
2017,08,09,09,23,17.40
2017,08,09,09,24,17.40
2017,08,09,09,25,17.50
2017,08,09,09,26,17.50
2017,08,09,09,27,17.50
2017,08,09,09,28,17.60
2017,08,09,09,29,17.60
2017,08,09,09,30,17.70
2017,08,09,09,31,17.70
2017,08,09,09,32,17.80
2017,08,09,09,33,17.80
2017,08,09,09,34,17.90
2017,08,09,09,35,17.90
2017,08,09,09,36,17.90
2017,08,09,09,37,18.00
2017,08,09,09,38,18.00
2017,08,09,09,39,18.00
2017,08,09,09,40,18.00
2017,08,09,09,41,18.00
2017,08,09,09,42,18.10
2017,08,09,09,43,18.10
2017,08,09,09,44,18.10
2017,08,09,09,45,18.10
2017,08,09,09,46,18.20
2017,08,09,09,47,18.20
2017,08,09,09,48,18.30
2017,08,09,09,49,18.30
2017,08,09,09,50,18.40
2017,08,09,09,51,18.40
2017,08,09,09,52,18.40
2017,08,09,09,53,18.40
2017,08,09,09,54,18.50
2017,08,09,09,55,18.50
2017,08,09,09,56,18.50
2017,08,09,09,57,18.60
2017,08,09,09,58,18.60
2017,08,09,09,59,18.70
2017,08,09,10,00,18.70
2017,08,09,10,01,18.70
2017,08,09,10,02,18.80
2017,08,09,10,03,18.80
2017,08,09,10,04,18.90
2017,08,09,10,05,18.90
2017,08,09,10,06,19.00
2017,08,09,10,07,19.00
2017,08,09,10,08,19.10
2017,08,09,10,09,19.10
2017,08,09,10,10,19.20
2017,08,09,10,11,19.20
2017,08,09,10,12,19.20
2017,08,09,10,13,19.20
2017,08,09,10,14,19.30
2017,08,09,10,15,19.30
2017,08,09,10,16,19.30
2017,08,09,10,17,19.30
2017,08,09,10,18,19.30
2017,08,09,10,19,19.40
2017,08,09,10,20,19.40
2017,08,09,10,21,19.40
2017,08,09,10,22,19.40
2017,08,09,10,23,19.40
2017,08,09,10,24,19.50
2017,08,09,10,25,19.50
2017,08,09,10,26,19.60
2017,08,09,10,27,19.60
2017,08,09,10,28,19.70
2017,08,09,10,29,19.70
2017,08,09,10,30,19.80
2017,08,09,10,31,19.80
2017,08,09,10,32,19.80
2017,08,09,10,33,19.80
2017,08,09,10,34,19.90
2017,08,09,10,35,19.90
2017,08,09,10,36,19.80
2017,08,09,10,37,19.90
2017,08,09,10,38,19.90
2017,08,09,10,39,19.90
2017,08,09,10,40,19.90
2017,08,09,10,41,19.90
2017,08,09,10,42,20.00
2017,08,09,10,43,20.00
2017,08,09,10,44,20.10
2017,08,09,10,45,20.10
2017,08,09,10,46,20.20
2017,08,09,10,47,20.20
2017,08,09,10,48,20.20
2017,08,09,10,49,20.30
2017,08,09,10,50,20.30
2017,08,09,10,51,20.30
2017,08,09,10,52,20.40
2017,08,09,10,53,20.40
2017,08,09,10,54,20.40
2017,08,09,10,55,20.40
2017,08,09,10,56,20.50
2017,08,09,10,57,20.60
2017,08,09,10,58,20.60
2017,08,09,10,59,20.70
2017,08,09,11,00,20.80
2017,08,09,11,01,20.80
2017,08,09,11,02,20.80
2017,08,09,11,03,20.90
2017,08,09,11,04,20.90
2017,08,09,11,05,20.90
2017,08,09,11,06,20.90
2017,08,09,11,07,21.00
2017,08,09,11,08,21.00
2017,08,09,11,09,21.00
2017,08,09,11,10,21.00
2017,08,09,11,11,21.10
2017,08,09,11,12,21.20
2017,08,09,11,13,21.20
2017,08,09,11,14,21.20
2017,08,09,11,15,21.20
2017,08,09,11,16,21.20
2017,08,09,11,17,21.20
2017,08,09,11,18,21.20
2017,08,09,11,19,21.20
2017,08,09,11,20,21.30
2017,08,09,11,21,21.30
2017,08,09,11,22,21.30
2017,08,09,11,23,21.40
2017,08,09,11,24,21.40
2017,08,09,11,25,21.40
2017,08,09,11,26,21.50
2017,08,09,11,27,21.50
2017,08,09,11,28,21.60
2017,08,09,11,29,21.60
2017,08,09,11,30,21.60
2017,08,09,11,31,21.50
2017,08,09,11,32,21.60
2017,08,09,11,33,21.60
2017,08,09,11,34,21.60
2017,08,09,11,35,21.60
2017,08,09,11,36,21.60
2017,08,09,11,37,21.60
2017,08,09,11,38,21.60
2017,08,09,11,39,21.60
2017,08,09,11,40,21.60
2017,08,09,11,41,21.70
2017,08,09,11,42,21.70
2017,08,09,11,43,21.70
2017,08,09,11,44,21.70
2017,08,09,11,45,21.80
2017,08,09,11,46,21.80
2017,08,09,11,47,21.80
2017,08,09,11,48,21.80
2017,08,09,11,49,21.90
2017,08,09,11,50,21.90
2017,08,09,11,51,22.00
2017,08,09,11,52,22.10
2017,08,09,11,53,22.10
2017,08,09,11,54,22.20
2017,08,09,11,55,22.20
2017,08,09,11,56,22.30
2017,08,09,11,57,22.30
2017,08,09,11,58,22.40
2017,08,09,11,59,22.40
2017,08,09,12,00,22.50
2017,08,09,12,01,22.60
2017,08,09,12,02,22.70
2017,08,09,12,03,22.70
2017,08,09,12,04,22.70
2017,08,09,12,05,22.70
2017,08,09,12,06,22.70
2017,08,09,12,07,22.70
2017,08,09,12,08,22.70
2017,08,09,12,09,22.70
2017,08,09,12,10,22.70
2017,08,09,12,11,22.70
2017,08,09,12,12,22.70
2017,08,09,12,13,22.70
2017,08,09,12,14,22.70
2017,08,09,12,15,22.70
2017,08,09,12,16,22.60
2017,08,09,12,17,22.60
2017,08,09,12,18,22.60
2017,08,09,12,19,22.60
2017,08,09,12,20,22.60
2017,08,09,12,21,22.60
2017,08,09,12,22,22.60
2017,08,09,12,23,22.60
2017,08,09,12,24,22.60
2017,08,09,12,25,22.60
2017,08,09,12,26,22.70
2017,08,09,12,27,22.70
2017,08,09,12,28,22.70
2017,08,09,12,29,22.70
2017,08,09,12,30,22.70
2017,08,09,12,31,22.80
2017,08,09,12,32,22.80
2017,08,09,12,33,22.90
2017,08,09,12,34,22.90
2017,08,09,12,35,23.00
2017,08,09,12,36,23.10
2017,08,09,12,37,23.10
2017,08,09,12,38,23.20
2017,08,09,12,39,23.20
2017,08,09,12,40,23.30
2017,08,09,12,41,23.30
2017,08,09,12,42,23.40
2017,08,09,12,43,23.40
2017,08,09,12,44,23.50
2017,08,09,12,45,23.60
2017,08,09,12,46,23.70
2017,08,09,12,47,23.80
2017,08,09,12,48,23.80
2017,08,09,12,49,23.80
2017,08,09,12,50,23.80
2017,08,09,12,51,23.80
2017,08,09,12,52,23.80
2017,08,09,12,53,23.80
2017,08,09,12,54,23.80
2017,08,09,12,55,23.80
2017,08,09,12,56,23.90
2017,08,09,12,57,23.90
2017,08,09,12,58,24.00
2017,08,09,12,59,24.00
2017,08,09,13,00,24.10
2017,08,09,13,01,24.10
2017,08,09,13,02,24.10
2017,08,09,13,03,24.20
2017,08,09,13,04,24.20
2017,08,09,13,05,24.20
2017,08,09,13,06,24.30
2017,08,09,13,07,24.30
2017,08,09,13,08,24.40
2017,08,09,13,09,24.40
2017,08,09,13,10,24.50
2017,08,09,13,11,24.60
2017,08,09,13,12,24.60
2017,08,09,13,13,24.60
2017,08,09,13,14,24.70
2017,08,09,13,15,24.70
2017,08,09,13,16,24.80
2017,08,09,13,17,24.90
2017,08,09,13,18,24.90
2017,08,09,13,19,25.00
2017,08,09,13,20,25.00
2017,08,09,13,21,25.00
2017,08,09,13,22,25.00
2017,08,09,13,23,25.10
2017,08,09,13,24,25.20
2017,08,09,13,25,25.20
2017,08,09,13,26,25.20
2017,08,09,13,27,25.30
2017,08,09,13,28,25.30
2017,08,09,13,29,25.40
2017,08,09,13,30,25.50
2017,08,09,13,31,25.60
2017,08,09,13,32,25.60
2017,08,09,13,33,25.70
2017,08,09,13,34,25.80
2017,08,09,13,35,25.90
2017,08,09,13,36,25.90
2017,08,09,13,37,26.00
2017,08,09,13,38,26.00
2017,08,09,13,39,26.10
2017,08,09,13,40,26.20
2017,08,09,13,41,26.30
2017,08,09,13,42,26.30
2017,08,09,13,43,26.40
2017,08,09,13,44,26.40
2017,08,09,13,45,26.40
2017,08,09,13,46,26.40
2017,08,09,13,47,26.40
2017,08,09,13,48,26.40
2017,08,09,13,49,26.40
2017,08,09,13,50,26.40
2017,08,09,13,51,26.50
2017,08,09,13,52,26.50
2017,08,09,13,53,26.50
2017,08,09,13,54,26.60
2017,08,09,13,55,26.60
2017,08,09,13,56,26.60
2017,08,09,13,57,26.60
2017,08,09,13,58,26.60
2017,08,09,13,59,26.60
2017,08,09,14,00,26.60
2017,08,09,14,01,26.60
2017,08,09,14,02,26.60
2017,08,09,14,03,26.70
2017,08,09,14,04,26.70
2017,08,09,14,05,26.70
2017,08,09,14,06,26.70
2017,08,09,14,07,26.70
2017,08,09,14,08,26.80
2017,08,09,14,09,26.80
2017,08,09,14,10,26.80
2017,08,09,14,11,26.90
2017,08,09,14,12,26.90
2017,08,09,14,13,26.90
2017,08,09,14,14,26.90
2017,08,09,14,15,26.90
2017,08,09,14,16,26.90
2017,08,09,14,17,26.90
2017,08,09,14,18,26.90
2017,08,09,14,19,26.90
2017,08,09,14,20,26.90
2017,08,09,14,21,26.90
2017,08,09,14,22,26.90
2017,08,09,14,23,26.90
2017,08,09,14,24,26.90
2017,08,09,14,25,26.90
2017,08,09,14,26,26.80
2017,08,09,14,27,26.80
2017,08,09,14,28,26.80
2017,08,09,14,29,26.90
2017,08,09,14,30,27.00
2017,08,09,14,31,27.00
2017,08,09,14,32,27.10
2017,08,09,14,33,27.10
2017,08,09,14,34,27.20
2017,08,09,14,35,27.20
2017,08,09,14,36,27.20
2017,08,09,14,37,27.20
2017,08,09,14,38,27.20
2017,08,09,14,39,27.20
2017,08,09,14,40,27.20
2017,08,09,14,41,27.20
2017,08,09,14,42,27.20
2017,08,09,14,43,27.10
2017,08,09,14,44,27.10
2017,08,09,14,45,27.10
2017,08,09,14,46,27.10
2017,08,09,14,47,27.10
2017,08,09,14,48,27.10
2017,08,09,14,49,27.10
2017,08,09,14,50,27.00
2017,08,09,14,51,27.00
2017,08,09,14,52,26.90
2017,08,09,14,53,26.90
2017,08,09,14,54,26.90
2017,08,09,14,55,26.90
2017,08,09,14,56,27.00
2017,08,09,14,57,27.00
2017,08,09,14,58,27.10
2017,08,09,14,59,27.20
2017,08,09,15,00,27.20
2017,08,09,15,01,27.30
2017,08,09,15,02,27.40
2017,08,09,15,03,27.50
2017,08,09,15,04,27.60
2017,08,09,15,05,27.70
2017,08,09,15,06,27.80
2017,08,09,15,07,28.00
2017,08,09,15,08,28.10
2017,08,09,15,09,28.20
2017,08,09,15,10,28.30
2017,08,09,15,11,28.30
2017,08,09,15,12,28.30
2017,08,09,15,13,28.30
2017,08,09,15,14,28.30
2017,08,09,15,15,28.30
2017,08,09,15,16,28.30
2017,08,09,15,17,28.30
2017,08,09,15,18,28.30
2017,08,09,15,19,28.30
2017,08,09,15,20,28.30
2017,08,09,15,21,28.30
2017,08,09,15,22,28.30
2017,08,09,15,23,28.30
2017,08,09,15,24,28.30
2017,08,09,15,25,28.20
2017,08,09,15,26,28.20
2017,08,09,15,27,28.10
2017,08,09,15,28,28.10
2017,08,09,15,29,28.20
2017,08,09,15,30,28.20
2017,08,09,15,31,28.20
2017,08,09,15,32,28.20
2017,08,09,15,33,28.20
2017,08,09,15,34,28.20
2017,08,09,15,35,28.20
2017,08,09,15,36,28.20
2017,08,09,15,37,28.20
2017,08,09,15,38,28.20
2017,08,09,15,39,28.20
2017,08,09,15,40,28.20
2017,08,09,15,41,28.10
2017,08,09,15,42,28.10
2017,08,09,15,43,28.00
2017,08,09,15,44,28.00
2017,08,09,15,45,28.00
2017,08,09,15,46,28.00
2017,08,09,15,47,28.00
2017,08,09,15,48,28.00
2017,08,09,15,49,28.00
2017,08,09,15,50,28.00
2017,08,09,15,51,28.10
2017,08,09,15,52,28.10
2017,08,09,15,53,28.20
2017,08,09,15,54,28.20
2017,08,09,15,55,28.20
2017,08,09,15,56,28.20
2017,08,09,15,57,28.20
2017,08,09,15,58,28.20
2017,08,09,15,59,28.20
2017,08,09,16,00,28.20
2017,08,09,16,01,28.20
2017,08,09,16,02,28.20
2017,08,09,16,03,28.20
2017,08,09,16,04,28.20
2017,08,09,16,05,28.20
2017,08,09,16,06,28.20
2017,08,09,16,07,28.20
2017,08,09,16,08,28.30
2017,08,09,16,09,28.30
2017,08,09,16,10,28.30
2017,08,09,16,11,28.30
2017,08,09,16,12,28.30
2017,08,09,16,13,28.30
2017,08,09,16,14,28.30
2017,08,09,16,15,28.30
2017,08,09,16,16,28.30
2017,08,09,16,17,28.30
2017,08,09,16,18,28.30
2017,08,09,16,19,28.30
2017,08,09,16,20,28.30
2017,08,09,16,21,28.30
2017,08,09,16,22,28.20
2017,08,09,16,23,28.30
2017,08,09,16,24,28.30
2017,08,09,16,25,28.30
2017,08,09,16,26,28.20
2017,08,09,16,27,28.20
2017,08,09,16,28,28.20
2017,08,09,16,29,28.20
2017,08,09,16,30,28.20
2017,08,09,16,31,28.30
2017,08,09,16,32,28.30
2017,08,09,16,33,28.30
2017,08,09,16,34,28.30
2017,08,09,16,35,28.30
2017,08,09,16,36,28.30
2017,08,09,16,37,28.30
2017,08,09,16,38,28.30
2017,08,09,16,39,28.30
2017,08,09,16,40,28.30
2017,08,09,16,41,28.30
2017,08,09,16,42,28.40
2017,08,09,16,43,28.50
2017,08,09,16,44,28.50
2017,08,09,16,45,28.60
2017,08,09,16,46,28.70
2017,08,09,16,47,28.70
2017,08,09,16,48,28.70
2017,08,09,16,49,28.70
2017,08,09,16,50,28.70
2017,08,09,16,51,28.80
2017,08,09,16,52,28.70
2017,08,09,16,53,28.70
2017,08,09,16,54,28.70
2017,08,09,16,55,28.70
2017,08,09,16,56,28.80
2017,08,09,16,57,28.80
2017,08,09,16,58,28.80
2017,08,09,16,59,28.80
2017,08,09,17,00,28.80
2017,08,09,17,01,28.80
2017,08,09,17,02,28.80
2017,08,09,17,03,28.80
2017,08,09,17,04,28.80
2017,08,09,17,05,28.90
2017,08,09,17,06,28.90
2017,08,09,17,07,28.90
2017,08,09,17,08,28.90
2017,08,09,17,09,28.90
2017,08,09,17,10,29.00
2017,08,09,17,11,29.00
2017,08,09,17,12,29.10
2017,08,09,17,13,29.10
2017,08,09,17,14,29.10
2017,08,09,17,15,29.10
2017,08,09,17,16,29.10
2017,08,09,17,17,29.10
2017,08,09,17,18,29.10
2017,08,09,17,19,29.00